User: anonymous   Login
Location: Elk Forest
(39.5314°N, 75.8738°W)
Time: 04:58:41
(UTC-05:00)
Language:

Resurs 01 Rocket - Orbit

View from above orbital plane
View from above orbital plane
View from above satellite
View from above satellite

Ground track
Ground track

The orbit data is extracted from the following two-line orbital elements,

1 23343U 94074B   16345.15229881 -.00000004  00000-0  71291-5 0  9994
2 23343  98.1768  14.1078 0006138 328.6037  72.3451 14.76682899188935
Epoch (UTC): 10 December 2016 03:39:18
Eccentricity: 0.0006138
inclination: 98.1768°
perigee height: 635 km
apogee height: 644 km
right ascension of ascending node: 14.1078°
argument of perigee: 328.6037°
revolutions per day: 14.76682899
mean anomaly at epoch: 72.3451°
orbit number at epoch: 18893

The dashed part of the orbit path shows where the satellite is in the earth's shadow,  

DLR